SL-8 DEB, 2334

Orbit data source: Space-Track

SL-8 DEB, 2334 is space debris in LEO originally from a launch on Mon, 15 Mar 1965 UTC launched from the Tyuratam Missile And Space Complex (TTMTR). Debris objects in space refer to the collection of defunct objects orbiting the Earth. Examples of debris include non-operational satellites, rocket bodies, and fragments generated from explosions, collisions, or faulty payload assembly.

Loading next visibility...
Identifier
2334, 1965-020EH
Orbit
LEO
Country
Flag of CISCIS
Related business
Manufacturer
Unknown
Mission
Spacecraft
Bus & Motor
Unknown
Mass
Unknown
Launch date (UTC)
1965-03-15 (61 years ago)
Launch vehicle
Unknown
Launch site
Tyuratam Missile And Space Complex (TTMTR)
Object type
Payload
Rocket body
Debris
Shape & HBR
Unknown shape, 0.1 m
Radar Cross Section
Small (<0.1 m²)

Expand to show TLE details & history
Last TLE update: 11 hours ago

TLE from 11 hours ago
0 SL-8 DEB
1  2334U 65020EH  26112.03899251  .00000208  00000-0  37945-3 0  9995
2  2334  55.6731 136.3288 0583107 288.5340  65.3113 13.12239764843570
Epoch: 2026-04-22T00:56Z
TLE epoch observation values (Epoch: 2026-04-22T00:56:08.952Z)
Latitude
-0.00004°
Longitude
-87.81468°
Altitude
1,052.719 km
Speed
7.404 km/s
True Right ascension
09h 05m 18s
True Declination
0° 00' 00"
Sunlit
Object was in daylight at epoch
Visualization orbit readout
Latitude
Unknown
Longitude
Unknown
Altitude
Unknown
Speed
Unknown
Apparent Right ascension
Unknown
Apparent Declination
Unknown
Sunlit
N/A
Visualization observer readout
Local Sidereal Time
18:45:25
Azimuth
Unknown
Elevation
Unknown
Doppler factor
Unknown
Orbital elements
Apogee altitude
1,657.103 km
Perigee altitude
771.653 km
Semi-major axis
7,592.515 km
Eccentricity
0.05831
Inclination
55.6731°
RAAN
136.3288°
Arg. of periapsis
288.534°
True anomaly
71.56035°
Mean anomaly
65.3113°
Eccentric anomaly
68.41803°
Mean motion
3.28069 °/min
Orbital period
109.73 mins
BSTAR
0.00037945
Loading maneuver chart data...
Computing Atmospheric mass density...

Documentation

Showing up to 5 results
|